Regional Weather Roundup
Issued by NWS

Home | Current Version | Previous Version | Graphics & Text | Print | Product List | Glossary Off
Versions: 1 2 3 4 5 6 7 8 9 10 11 12 13 14 15 16 17 18 19 20 21 22 23 24 25 26 27 28 29 30 31 32 33 34 35 36 37 38 39 40 41 42 43 44 45 46 47 48 49 50

000
ASUS43 KMKX 260811
RWRWI

WISCONSIN REGIONAL WEATHER ROUNDUP
NATIONAL WEATHER SERVICE MILWAUKEE/SULLIVAN WI
200 AM CST WED NOV 26 2014

NOTE: "FAIR" INDICATES FEW OR NO CLOUDS BELOW 12,000 FEET WITH NO
SIGNIFICANT WEATHER AND/OR OBSTRUCTIONS TO VISIBILITY.

WIZ001-002-006>008-014>016-023>028-260900-
NORTHWEST WISCONSIN

CITY           SKY/WX    TMP DP  RH WIND       PRES   REMARKS
SUPERIOR ARPT  CLOUDY    20  16  84 S3        30.12R
ASHLAND        CLOUDY    17  14  88 CALM      30.13R
HAYWARD        CLOUDY    20  15  81 CALM      30.08R
SIREN          CLOUDY    22  17  82 E5        30.07S WCI  15
CUMBERLAND     CLOUDY    21  16  79 E5        30.05S WCI  15
RICE LAKE      CLOUDY    22  17  81 E3        30.09S
CHETEK         CLOUDY    22  17  82 E5        30.07F WCI  15
LADYSMITH      CLOUDY    22  18  85 E5        30.09S WCI  15
EAU CLAIRE     CLOUDY    22  15  75 E7        30.07F WCI  13
MENOMONIE      CLOUDY    23  17  77 E8        30.07F WCI  14
NEW RICHMOND   CLOUDY    23  16  74 SE6       30.05R WCI  16
OSCEOLA        CLOUDY    24  18  76 E6        30.08R WCI  17
$$

WIZ003>005-009-010-017-018-260900-
NORTH CENTRAL WISCONSIN

CITY           SKY/WX    TMP DP  RH WIND       PRES   REMARKS
MANITOWISH WTR CLOUDY    10   8  92 CALM      30.08R
ARBOR VITAE    CLOUDY    17  14  89 W3        30.07R
WOODRUFF       CLOUDY    17  14  89 W3        30.07R
RHINELANDER    CLOUDY    10   8  92 E5        30.07S WCI   2
EAGLE RIVER    CLOUDY     9   5  84 CALM      30.07R
LAND O LAKES   PTCLDY    -6 -10  82 CALM      30.08R
PHILLIPS       CLOUDY    16  14  91 CALM      30.07S
TOMAHAWK       CLOUDY    13  11  90 CALM      30.09R
MEDFORD        CLOUDY    18  15  87 CALM      30.08R
MERRILL        CLOUDY    13  11  92 CALM      30.09S
$$

WIZ029-030-035-036-043>047-260900-
CENTRAL WISCONSIN

CITY           SKY/WX    TMP DP  RH WIND       PRES   REMARKS
WAUSAU         CLOUDY    14  11  87 E5        30.09F WCI   6
MOSINEE        CLOUDY    14  14 100 E3        30.11S
MARSHFIELD     CLOUDY    20  15  81 E5        30.09R WCI  13
STEVENS POINT  CLOUDY    13  11  92 CALM      30.12S
WAUPACA        CLOUDY    13  10  86 CALM      30.16S
WAUTOMA        MOCLDY     7   3  83 CALM      30.16R
WISC RAPIDS    CLOUDY    17  13  84 SE5       30.13R WCI  10
CAMP DOUGLAS   CLOUDY     7   7  99 E3        30.12R
$$

WIZ011>013-019>022-031-037>040-048>050-260900-
NORTHEAST WISCONSIN

CITY           SKY/WX    TMP DP  RH WIND       PRES   REMARKS
ANTIGO         CLOUDY    10   8  92 CALM      30.09F
SHAWANO        CLOUDY    11   8  87 CALM      30.17S
OCONTO         CLEAR      8   6  92 CALM      30.19S
STURGEON BAY   CLOUDY    21  14  73 S3        30.18S
GREEN BAY      CLOUDY    12   9  87 CALM      30.18S
MANITOWOC      CLOUDY    18  15  88 CALM      30.19F
APPLETON       CLEAR     14  12  92 CALM      30.16S FOG
CLINTONVILLE     N/A     10   7  85 CALM      30.16S
OSHKOSH        CLEAR     12   9  87 S3        30.16S FOG
$$

WIZ032>034-041-042-053>061-260900-
SOUTHWEST WISCONSIN

CITY           SKY/WX    TMP DP  RH WIND       PRES   REMARKS
LA CROSSE      CLOUDY    20  14  77 SE6       30.10F WCI  12
SPARTA         CLOUDY    17  14  89 CALM      30.11F
VIROQUA        MOCLDY    15  14  95 SE8       30.06F WCI   4
BOSCOBEL       MOCLDY    11   7  84 CALM      30.13S
PRAIRIE DU CHI MOCLDY    16  13  86 SE3       30.11S
PLATTEVILLE    MOCLDY    15  13  92 CALM      30.11S
$$

WIZ056-057-062-063-064-067-068-260900-
SOUTH CENTRAL WISCONSIN

CITY           SKY/WX    TMP DP  RH WIND       PRES   REMARKS
REEDSBURG      PTCLDY     9   7  92 CALM      30.12R
BARABOO/DELLS  PTCLDY     4   1  86 CALM      30.12S
LONE ROCK      PTCLDY     6  -1  73 CALM      30.14S
MINERAL POINT  PTCLDY    16  12  86 E5        30.09S WCI   9
MADISON        CLEAR     12  10  92 N3        30.14R
MIDDLETON      CLEAR      4   0  82 CALM      30.14R
WATERTOWN      CLEAR     10   8  95 CALM      30.14S
MONROE         CLEAR     14  14 100 S6        30.11R WCI   5
JANESVILLE     CLEAR      9   5  85 CALM      30.14F
$$

WIZ051-052-058>065-066-070>072-260900-
SOUTHEAST WISCONSIN

CITY           SKY/WX    TMP DP  RH WIND       PRES   REMARKS
MILWAUKEE      PTCLDY    18  13  80 SW3       30.18S
WAUKESHA       CLEAR     10   9  92 CALM      30.17S
MILWAUKEE/TIMM MOCLDY    19  14  79 CALM      30.19S
RACINE         PTCLDY    16  12  84 W5        30.21R WCI   9
BURLINGTON     CLEAR      6   4  91 CALM      30.17S FOG
KENOSHA        MOCLDY    12   9  87 CALM      30.19R FOG
FOND DU LAC    CLEAR     11   6  81 CALM      30.16S
SHEBOYGAN      CLOUDY    20  14  77 N3        30.17F
WEST BEND      CLOUDY    19  14  79 CALM      30.17R
JUNEAU         CLEAR     12  10  92 E3        30.15S FOG
$$

LSZ147-162-260900-
LAKE SUPERIOR

STATION/POSITION TIME  TEMP    WIND        PRES    WAVE
                       AIR SEA DIR/SP/G            HT/PER
                 (UTC) (F)     (DEG/KT/KT) (MB)    (FT/S)
DEVILS ISLAND    0800   24     220/ 10/ 15 1021.0R
PORT WING        0700   18     140/  3/  4 1020.0R
SAXON HARBOR     0700   13     200/  3/  5 1019.6S
$$

LMZ867-665-643>646-260900-
LAKE MICHIGAN

STATION/POSITION TIME  TEMP    WIND        PRES    WAVE
                       AIR SEA DIR/SP/G            HT/PER
                 (UTC) (F)     (DEG/KT/KT) (MB)    (FT/S)
CHAMBERS ISLAND  0700   22     250/  5/ 12 1022.0R
N MID LAKE BUOY  0750   29 42  260/  6/ 10 1022.5R   1/ 3
NORTHPORT PIER   0704   24     240/  3/  7 1022.0R
SISTER BAY       0658             CALM       N/A
ALGOMA LAKESHORE 0643             CALM       N/A
KEWAUNEE LAKESHO 0700   21      CALM  /  2 1021.4R
SHEBOYGAN LAKESH 0800   21 35  300/  6/  7 1023.3F
PORT WASHINGTON  0740   21     250/  5/  8 1023.0S
MILWAUKEE LAKESH 0700   21     190/  4/  6   N/A
S MID LAKE BUOY  0750   28 42  250/ 10/ 14 1022.9R   2/ 3
KENOSHA   LAKESH 0800   19     280/  2/  4 1022.4R
$$

TC  - TEMPERATURE IN CELSIUS
VSB - VISIBILITY IN STATUTE MILES
WCI - WIND CHILL INDEX
HX  - HEAT INDEX




USA.gov is the U.S. government's official web portal to all federal, state and local government web resources and services.